Date String (YYYY-MM-DD hh:mm:ss) UTC,Instrument flags,Ambient pressure (hPa),Sample flow (lpm),Bypass flow (lpm),Sample temperature (°C),Ambient temperature (°C),ASC tube jacket temperature (°C),LED temperature (°C),Box temperature (°C),Sample RH (%),Span deviation,Mass concentration (μg/m³),Mass concentration (μg/m³),Mass concentration (μg/m³)
DateTimeUTC,F1_M11,P_M11,Q1_M11,Q2_M11,T1_M11,T2_M11,T3_M11,T4_M11,T5_M11,U1_M11,ZSPAN_M11,X2_M11,X0_M11,X1_M11
2022-06-24 02:00:00,,0824.3,5.01,0.00,29.0,27.3,00.0,37.7,30.8,12.3,0000.0,0006.45,0018.34,0005.12
2022-06-24 02:01:00,,0824.4,5.01,0.00,29.0,27.5,00.0,37.7,30.9,12.2,0000.0,0006.45,0018.08,0005.13
2022-06-24 02:02:00,,0824.4,5.00,0.00,29.0,27.7,00.0,37.7,30.9,12.5,0000.0,0006.43,0017.34,0005.12
2022-06-24 02:03:00,,0824.3,5.00,0.00,29.0,27.9,00.0,37.8,31.0,12.7,0000.0,0006.34,0016.55,0005.10
2022-06-24 02:04:00,,0824.4,4.99,0.00,29.1,28.0,00.0,37.8,31.0,12.5,0000.0,0006.28,0015.63,0005.08
2022-06-24 02:05:00,,0824.4,5.00,0.00,29.1,28.1,00.0,37.8,31.1,12.3,0000.0,0006.29,0015.46,0005.08
2022-06-24 02:06:00,,0824.4,5.00,0.00,29.1,28.3,00.0,37.8,31.1,12.4,0000.0,0006.23,0014.23,0005.06
2022-06-24 02:07:00,,0824.4,5.01,0.00,29.2,27.9,00.0,37.8,31.1,12.5,0000.0,0006.22,0012.96,0005.03
2022-06-24 02:08:00,,0824.3,5.01,0.00,29.1,27.5,00.0,37.8,31.0,12.6,0000.0,0006.20,0012.87,0005.00
2022-06-24 02:09:00,,0824.3,5.00,0.00,29.1,27.4,00.0,37.8,30.9,12.6,0000.0,0006.14,0014.18,0004.96
2022-06-24 02:10:00,,0824.4,4.99,0.00,29.1,27.5,00.0,37.8,30.9,12.3,0000.0,0006.10,0014.38,0004.93
2022-06-24 02:11:00,,0824.5,5.00,0.00,29.1,27.6,00.0,37.8,30.9,12.0,0000.0,0006.06,0014.95,0004.91
2022-06-24 02:12:00,,0824.5,5.00,0.00,29.1,27.7,00.0,37.8,31.0,12.3,0000.0,0006.02,0015.01,0004.89
2022-06-24 02:13:00,,0824.5,5.01,0.00,29.1,27.9,00.0,37.8,31.0,13.5,0000.0,0005.97,0015.25,0004.87
2022-06-24 02:14:00,,0824.7,5.00,0.00,29.1,28.0,00.0,37.8,31.1,14.1,0000.0,0005.96,0015.64,0004.84
2022-06-24 02:15:00,,0824.7,4.99,0.00,29.2,28.1,00.0,37.9,31.1,13.6,0000.0,0005.97,0015.94,0004.83
2022-06-24 02:16:00,,0824.8,5.00,0.00,29.2,28.3,00.0,37.9,31.2,13.5,0000.0,0005.93,0015.48,0004.79
2022-06-24 02:17:00,,0824.7,5.00,0.00,29.2,28.0,00.0,37.9,31.1,13.0,0000.0,0005.91,0015.16,0004.77
2022-06-24 02:18:00,,0824.8,5.00,0.00,29.1,27.2,00.0,37.8,30.9,13.0,0000.0,0005.88,0015.17,0004.76
2022-06-24 02:19:00,,0824.8,4.99,0.00,29.1,26.9,00.0,37.8,30.8,13.2,0000.0,0005.89,0015.49,0004.76
2022-06-24 02:20:00,,0824.7,4.99,0.00,29.0,26.9,00.0,37.8,30.8,13.4,0000.0,0005.91,0014.45,0004.77
2022-06-24 02:21:00,,0824.8,5.00,0.00,29.0,27.0,00.0,37.7,30.8,13.5,0000.0,0005.89,0014.60,0004.76
2022-06-24 02:22:00,,0824.9,5.00,0.00,29.0,27.2,00.0,37.7,30.8,13.4,0000.0,0005.84,0013.88,0004.74
2022-06-24 02:23:00,,0824.9,5.01,0.00,29.0,27.3,00.0,37.7,30.8,13.4,0000.0,0005.83,0014.24,0004.73
2022-06-24 02:24:00,,0824.9,5.00,0.00,29.0,27.5,00.0,37.8,30.9,13.7,0000.0,0005.83,0014.17,0004.73
2022-06-24 02:25:00,,0824.9,5.01,0.00,29.0,27.7,00.0,37.8,30.9,14.4,0000.0,0005.82,0014.30,0004.73
2022-06-24 02:26:00,,0824.9,5.00,0.00,29.0,27.8,00.0,37.8,31.0,14.3,0000.0,0005.79,0014.24,0004.72
2022-06-24 02:27:00,,0824.9,5.00,0.00,29.1,28.0,00.0,37.8,31.0,13.9,0000.0,0005.74,0013.77,0004.73
2022-06-24 02:28:00,,0824.9,5.01,0.00,29.1,28.1,00.0,37.8,31.1,14.0,0000.0,0005.73,0014.12,0004.71
2022-06-24 02:29:00,,0824.9,4.98,0.00,29.1,28.2,00.0,37.8,31.1,14.6,0000.0,0005.71,0013.76,0004.69
2022-06-24 02:30:00,,0824.9,4.99,0.00,29.2,28.3,00.0,37.9,31.2,14.8,0000.0,0005.66,0013.71,0004.66
2022-06-24 02:31:00,,0824.9,5.01,0.00,29.2,27.9,00.0,37.8,31.1,14.3,0000.0,0005.66,0013.67,0004.63
2022-06-24 02:32:00,,0824.9,5.00,0.00,29.1,27.1,00.0,37.8,30.9,14.2,0000.0,0005.63,0013.35,0004.62
2022-06-24 02:33:00,,0824.8,5.00,0.00,29.1,26.9,00.0,37.7,30.8,14.3,0000.0,0005.63,0014.09,0004.60
2022-06-24 02:34:00,,0824.7,5.01,0.00,29.0,26.9,00.0,37.7,30.8,14.5,0000.0,0005.62,0013.96,0004.58
2022-06-24 02:35:00,,0824.6,5.00,0.00,29.0,27.0,00.0,37.7,30.8,14.7,0000.0,0005.62,0013.70,0004.55
2022-06-24 02:36:00,,0824.7,5.00,0.00,29.0,27.2,00.0,37.7,30.8,14.4,0000.0,0005.67,0013.24,0004.54
2022-06-24 02:37:00,,0824.6,5.01,0.00,29.0,27.3,00.0,37.7,30.8,14.1,0000.0,0005.68,0013.92,0004.54
2022-06-24 02:38:00,,0824.7,5.00,0.00,29.0,27.5,00.0,37.8,30.9,14.3,0000.0,0005.65,0014.18,0004.52
2022-06-24 02:39:00,,0824.5,5.00,0.00,29.0,27.7,00.0,37.8,30.9,14.2,0000.0,0005.64,0013.98,0004.52
2022-06-24 02:40:00,,0824.4,5.00,0.00,29.0,27.8,00.0,37.8,31.0,14.1,0000.0,0005.63,0014.05,0004.52
2022-06-24 02:41:00,,0824.5,5.02,0.00,29.1,28.0,00.0,37.8,31.0,14.5,0000.0,0005.64,0013.60,0004.53
2022-06-24 02:42:00,,0824.5,5.00,0.00,29.1,28.1,00.0,37.8,31.1,14.8,0000.0,0005.68,0014.11,0004.52
2022-06-24 02:43:00,,0824.6,5.00,0.00,29.1,28.2,00.0,37.8,31.1,14.1,0000.0,0005.72,0014.07,0004.52
2022-06-24 02:44:00,,0824.5,5.00,0.00,29.2,28.3,00.0,37.9,31.2,13.5,0000.0,0005.76,0013.42,0004.54
2022-06-24 02:45:00,,0824.6,5.00,0.00,29.2,28.2,00.0,37.9,31.1,13.9,0000.0,0005.80,0013.19,0004.57
2022-06-24 02:46:00,,0824.6,5.01,0.00,29.1,27.3,00.0,37.8,30.9,14.1,0000.0,0005.81,0014.09,0004.58
2022-06-24 02:47:00,,0824.7,5.00,0.00,29.1,26.8,00.0,37.8,30.8,15.1,0000.0,0005.78,0014.49,0004.59
2022-06-24 02:48:00,,0824.4,5.00,0.00,29.0,26.8,00.0,37.7,30.8,14.9,0000.0,0005.73,0014.03,0004.56
2022-06-24 02:49:00,,0824.4,5.00,0.00,29.0,26.8,00.0,37.7,30.7,15.1,0000.0,0005.75,0014.09,0004.56
2022-06-24 02:50:00,,0824.4,4.99,0.00,29.0,27.0,00.0,37.7,30.8,15.2,0000.0,0005.69,0014.57,0004.53
2022-06-24 02:51:00,,0824.4,5.00,0.00,28.9,27.2,00.0,37.7,30.8,15.7,0000.0,0005.65,0014.89,0004.52
2022-06-24 02:52:00,,0824.4,4.99,0.00,29.0,27.4,00.0,37.7,30.8,14.9,0000.0,0005.59,0015.81,0004.48
2022-06-24 02:53:00,,0824.5,5.00,0.00,29.0,27.5,00.0,37.7,30.9,13.9,0000.0,0005.61,0017.02,0004.51
2022-06-24 02:54:00,,0824.3,5.01,0.00,29.0,27.7,00.0,37.8,30.9,15.4,0000.0,0005.57,0017.50,0004.52
2022-06-24 02:55:00,,0824.4,5.00,0.00,29.0,27.9,00.0,37.8,31.0,15.9,0000.0,0005.46,0017.98,0004.47
2022-06-24 02:56:00,,0824.4,5.00,0.00,29.1,28.0,00.0,37.8,31.0,16.0,0000.0,0005.35,0018.30,0004.40
2022-06-24 02:57:00,,0824.5,4.99,0.00,29.1,28.1,00.0,37.8,31.1,14.6,0000.0,0005.29,0017.87,0004.36
2022-06-24 02:58:00,,0824.6,5.00,0.00,29.1,28.2,00.0,37.8,31.1,14.8,0000.0,0005.27,0017.42,0004.36
2022-06-24 02:59:00,,0824.8,5.00,0.00,29.2,28.3,00.0,37.9,31.2,15.4,0000.0,0005.22,0017.47,0004.35
